Location: Burgwalden
(48.2830°N, 10.7576°E)
Time: 02:24:45
(UTC+00:00)

Cosmos 1553 Rocket - Pass Details

Date: 26 September 2023
Orbit: 942 x 1007 km, 82.9° (Epoch: 04 December)

Event Time Altitude Azimuth Distance (km) Brightness Sun altitude
Rises 02:27:49 0° 348° (NNW) 3,632 7.2 -26.3°
Reaches altitude 10° 02:30:19 10° 346° (NNW) 2,689 6.5 -26.0°
Maximum altitude 02:36:23 65° 266° (W) 1,055 3.9 -25.1°
Enters shadow 02:37:20 57° 223° (SW) 1,126 3.9 -25.0°
